Date,TemperatureHighF,TemperatureAvgF,TemperatureLowF,DewpointHighF,DewpointAvgF,DewpointLowF,HumidityHigh,HumidityAvg,HumidityLow,PressureMaxIn,PressureMinIn,WindSpeedMaxMPH,WindSpeedAvgMPH,GustSpeedMaxMPH,PrecipitationSumIn
2013-1-16,35.0,32.0,29.0,35.0,31.8,28.0,100,98,96,29.81,29.56,7,4,17,0.14
2013-1-17,38.0,28.6,11.0,36.0,21.3,-9.0,100,76,40,29.95,29.54,10,6,25,0.27
2013-1-18,17.0,10.4,5.0,2.0,-3.8,-10.0,70,52,39,30.19,29.92,12,7,24,0.01
2013-1-19,35.0,28.8,17.0,30.0,21.8,3.0,95,75,52,30.17,29.71,17,6,29,0.00
2013-1-20,45.0,38.3,23.0,39.0,30.8,8.0,92,75,50,29.71,29.23,24,10,36,0.00
2013-1-21,22.0,17.4,12.0,14.0,2.7,-1.0,88,53,37,29.83,29.60,13,6,27,0.00
2013-1-22,16.0,10.8,7.0,13.0,1.8,-9.0,88,67,48,29.77,29.58,15,7,30,0.00
2013-1-23,9.0,2.1,-1.0,-7.0,-10.9,-14.0,64,54,43,29.84,29.76,15,9,33,0.00
2013-1-24,10.0,3.1,-3.0,-4.0,-7.9,-12.0,74,60,43,29.83,29.66,13,8,30,0.00
2013-1-25,20.0,10.7,3.0,4.0,-0.3,-6.0,74,61,47,29.95,29.83,14,7,25,0.00
2013-1-26,19.0,11.8,6.0,1.0,-1.8,-4.0,66,54,38,29.87,29.74,12,7,23,0.00
2013-1-27,22.0,14.3,8.0,8.0,3.8,-2.0,76,62,54,30.18,29.87,14,8,30,0.00
2013-1-28,26.0,18.4,12.0,20.0,6.2,-2.0,93,60,31,30.20,29.88,9,3,16,0.00
2013-1-29,34.0,27.0,19.0,27.0,21.5,16.0,93,80,63,30.03,29.87,6,2,12,0.00
2013-1-30,48.0,41.9,33.0,48.0,41.2,28.0,100,98,81,29.97,29.27,22,13,35,0.13
2013-1-31,53.0,41.6,32.0,53.0,33.8,-99.9,100,79,53,29.27,28.64,30,15,58,0.17
2013-2-1,31.0,23.2,13.0,17.0,8.8,4.0,68,54,47,29.80,29.19,20,9,33,0.02
2013-2-2,24.0,17.5,10.0,17.0,7.0,0.0,80,63,45,29.99,29.80,12,5,21,0.00
2013-2-3,27.0,22.6,18.0,20.0,18.0,15.0,94,83,71,29.87,29.47,12,6,19,0.00
2013-2-4,26.0,20.5,15.0,15.0,9.8,-4.0,83,64,42,29.62,29.38,18,10,33,0.00
2013-2-5,20.0,14.8,10.0,3.0,-2.2,-5.0,58,46,35,29.83,29.62,13,5,23,0.00
2013-2-6,33.0,21.6,14.0,26.0,11.2,0.0,89,65,38,30.03,29.71,15,5,29,0.01
2013-2-7,17.0,9.8,6.0,4.0,-7.5,-12.0,59,45,32,30.40,30.03,11,6,24,0.01
2013-2-8,19.0,10.6,5.0,16.0,3.7,-11.0,91,74,47,30.41,29.73,17,7,33,0.00
2013-2-9,16.0,12.3,9.0,14.0,9.9,7.0,93,90,79,29.85,29.45,29,19,49,0.00
2013-2-10,32.0,22.3,14.0,14.0,8.9,4.0,79,57,37,30.14,29.84,14,6,25,0.00
2013-2-11,40.0,29.4,15.0,40.0,25.8,9.0,100,86,54,30.14,29.37,15,4,24,0.25
2013-2-12,41.0,36.2,32.0,36.0,32.4,29.0,100,87,71,29.54,29.29,11,6,19,0.05
2013-2-13,40.0,35.2,33.0,30.0,27.9,25.0,85,75,59,29.59,29.51,8,3,13,0.01
2013-2-14,38.0,32.4,28.0,26.0,22.1,18.0,81,66,46,29.80,29.52,9,4,17,0.00
2013-2-15,41.0,35.4,27.0,38.0,32.0,21.0,96,87,72,29.81,29.72,17,7,29,0.00
2013-2-16,38.0,33.6,31.0,37.0,32.9,31.0,100,97,93,29.74,29.70,10,3,16,0.00
2013-2-27,37.0,32.7,30.0,31.0,27.1,-99.9,99,87,71,29.84,29.54,15,10,32,0.00
2013-2-28,39.0,35.6,31.0,39.0,35.6,31.0,100,100,99,29.54,29.33,18,10,34,0.37
2013-3-1,31.0,30.7,30.0,31.0,30.6,29.0,100,99,97,29.44,29.31,0,0,1,0.03
2013-3-2,35.0,32.5,31.0,34.0,31.7,29.0,100,97,91,29.41,29.37,8,3,16,0.10
2013-3-3,39.0,35.5,33.0,37.0,34.2,32.0,99,95,87,29.39,29.28,6,3,14,0.07
2013-3-4,35.0,32.1,30.0,33.0,30.6,28.0,99,94,86,29.44,29.24,13,5,20,0.13
2013-3-5,42.0,35.6,32.0,36.0,33.7,32.0,100,93,79,29.93,29.44,13,9,21,0.13
2013-3-6,37.0,33.6,32.0,33.0,29.1,25.0,95,83,72,30.09,29.93,13,8,25,0.02
2013-3-7,36.0,32.8,31.0,26.0,25.3,24.0,80,74,65,30.05,29.89,17,11,30,0.01
2013-3-8,45.0,35.8,30.0,26.0,24.0,21.0,80,64,39,30.01,29.86,20,13,36,0.00
2013-3-9,42.0,33.1,27.0,27.0,24.8,23.0,84,72,53,30.18,29.99,13,8,27,0.00
2013-3-10,35.0,30.0,27.0,30.0,25.9,23.0,89,85,73,30.24,30.11,10,4,14,0.00
2013-3-11,39.0,37.0,33.0,38.0,34.9,30.0,98,92,89,30.13,29.98,15,9,24,0.00
2013-3-12,48.0,43.2,39.0,48.0,42.1,38.0,100,96,89,29.99,29.61,20,10,36,0.32
2013-3-13,49.0,42.2,37.0,49.0,40.9,29.0,100,95,75,29.62,29.45,26,6,41,0.60
2013-3-14,39.0,33.6,25.0,31.0,26.9,16.0,95,76,59,29.49,29.40,14,5,22,0.01
2013-3-15,32.0,24.9,17.0,19.0,12.6,8.0,81,60,40,29.55,29.40,15,7,28,0.01
2013-3-16,33.0,27.8,22.0,22.0,15.8,11.0,88,62,42,29.68,29.41,12,5,19,0.00
2013-3-17,28.0,22.9,18.0,12.0,7.2,-1.0,66,51,35,30.08,29.68,14,6,28,0.00
2013-3-18,32.0,23.2,15.0,19.0,3.8,-2.0,65,43,29,30.22,30.08,9,4,21,0.00
2013-3-19,29.0,25.1,22.0,25.0,20.3,9.0,98,84,46,30.11,29.46,14,7,24,0.00
2013-3-20,34.0,25.6,18.0,27.0,21.5,16.0,98,85,67,29.49,29.36,22,8,35,0.00
2013-3-21,35.0,30.7,26.0,28.0,22.6,17.0,91,72,47,29.56,29.40,13,5,23,0.00
2013-3-22,38.0,30.5,24.0,26.0,20.6,18.0,92,68,46,29.41,29.35,10,5,18,0.00
2013-3-23,38.0,32.2,26.0,27.0,22.2,18.0,76,67,54,29.40,29.22,14,9,26,0.00
2013-3-24,42.0,37.1,33.0,29.0,26.8,25.0,80,67,51,29.57,29.37,10,5,18,0.00
2013-3-25,43.0,36.0,29.0,32.0,29.2,26.0,94,77,59,29.57,29.39,11,5,17,0.00
2013-3-26,45.0,37.1,30.0,32.0,27.4,23.0,80,68,47,29.49,29.33,13,7,25,0.00
2013-3-27,39.0,36.2,34.0,38.0,33.8,29.0,98,91,80,29.65,29.47,10,5,16,0.10
2013-3-28,47.0,39.3,34.0,37.0,34.0,32.0,94,82,64,29.74,29.65,9,4,17,0.01
2013-3-29,51.0,43.7,38.0,39.0,34.6,32.0,89,71,53,29.78,29.72,8,3,15,0.00
2013-3-30,51.0,41.0,34.0,35.0,30.9,20.0,88,70,31,29.87,29.77,14,3,19,0.00
2013-3-31,48.0,40.0,31.0,38.0,25.5,-99.9,92,60,36,29.92,29.69,14,4,18,0.00
2013-4-1,44.0,40.2,34.0,41.0,38.2,26.0,99,93,72,29.70,29.29,17,8,32,0.54
2013-4-2,35.0,30.7,27.0,26.0,16.2,12.0,72,55,40,29.59,29.43,15,9,28,0.04
2013-4-3,38.0,31.8,27.0,21.0,17.6,14.0,79,56,44,29.77,29.57,16,10,32,0.00
2013-4-4,47.0,36.3,29.0,35.0,21.0,11.0,86,56,25,29.97,29.76,18,8,28,0.00
2013-4-5,46.0,40.5,36.0,37.0,33.9,27.0,88,78,54,29.78,29.45,19,8,28,0.00
2013-4-6,37.0,32.1,26.0,27.0,13.6,6.0,70,47,27,30.14,29.56,14,7,30,0.00
2013-4-7,41.0,35.9,28.0,39.0,25.6,12.0,94,67,48,30.15,29.77,19,10,32,0.00
2013-4-8,55.0,46.5,39.0,40.0,37.1,33.0,96,72,49,29.96,29.69,18,6,32,0.00
2013-4-9,42.0,39.8,38.0,41.0,37.9,33.0,100,93,72,29.96,29.72,11,3,17,0.26
2013-4-10,51.0,41.4,37.0,46.0,40.6,37.0,100,97,81,29.80,29.70,10,3,17,0.08
2013-4-11,43.0,40.3,36.0,42.0,32.8,23.0,98,76,54,29.79,29.68,13,4,23,0.01
2013-5-8,56.0,52.9,51.0,54.0,52.3,51.0,99,97,92,30.02,29.99,4,3,8,0.00
2013-5-9,55.0,52.3,50.0,55.0,52.1,50.0,100,99,98,29.99,29.74,8,3,13,0.47
2013-5-10,61.0,51.1,48.0,61.0,49.3,-99.9,100,99,93,29.80,29.72,15,4,22,0.01
2013-5-11,54.0,50.7,47.0,54.0,50.7,47.0,100,100,98,29.79,29.53,15,8,26,0.17
2013-5-12,54.0,50.8,48.0,54.0,50.1,-99.9,100,100,100,29.54,29.36,13,4,22,0.34
2013-5-13,51.0,47.0,43.0,47.0,40.6,35.0,100,79,58,29.80,29.52,19,9,35,0.16
2013-5-14,54.0,48.1,42.0,38.0,34.5,31.0,75,60,45,29.82,29.74,9,3,15,0.01
2013-5-15,56.0,48.3,41.0,47.0,38.3,32.0,99,71,40,29.81,29.51,18,8,32,0.18
2013-5-16,64.0,49.4,46.0,56.0,30.7,-99.9,100,86,59,29.58,29.38,15,6,26,0.18
2013-5-17,59.0,52.4,48.0,45.0,37.4,-99.9,85,66,48,30.01,29.58,12,5,24,0.00
2013-5-18,54.0,47.7,43.0,46.0,40.4,-99.9,91,78,66,30.17,30.01,13,5,20,0.00
2013-5-19,55.0,47.5,40.0,49.0,44.1,39.0,99,88,72,30.21,30.08,13,5,19,0.00
2013-5-20,63.0,52.5,48.0,58.0,51.6,48.0,100,97,83,30.09,29.75,13,4,23,0.61
2013-5-21,52.0,48.7,47.0,52.0,48.6,47.0,100,99,98,29.89,29.82,8,2,12,0.30
2013-5-22,51.0,48.5,46.0,50.0,48.2,46.0,100,99,94,29.89,29.76,11,5,21,0.51
2013-5-23,56.0,51.4,46.0,56.0,51.4,46.0,100,100,96,29.78,29.66,17,5,27,0.01
2013-5-24,59.0,53.9,49.0,59.0,53.9,48.0,100,100,100,29.67,29.49,21,10,36,0.99
2013-5-25,50.0,48.3,47.0,50.0,48.3,47.0,100,100,99,29.66,29.52,13,8,26,0.41
2013-5-26,49.0,46.7,45.0,49.0,46.0,42.0,100,98,88,29.75,29.45,9,4,21,0.46
2013-5-27,64.0,52.4,42.0,43.0,39.7,35.0,91,65,37,29.98,29.74,10,5,21,0.01
2013-5-28,65.0,53.9,42.0,47.0,41.8,37.0,93,66,38,30.05,29.98,14,4,26,0.00
2013-5-29,53.0,50.2,46.0,53.0,49.5,43.0,100,97,80,30.06,29.82,15,4,23,0.18
2013-5-30,75.0,61.3,49.0,67.0,57.5,49.0,100,89,65,29.85,29.78,7,2,12,0.02
2013-5-31,78.0,67.8,58.0,66.0,61.3,56.0,99,81,64,29.86,29.70,15,4,23,0.00
2013-6-1,80.0,69.2,59.0,68.0,62.5,58.0,96,80,65,29.75,29.64,11,3,21,0.00
2013-6-2,71.0,64.2,59.0,65.0,59.6,-99.9,97,89,79,29.65,29.54,17,6,32,0.05
2013-6-3,68.0,60.0,55.0,67.0,58.8,55.0,100,96,85,29.66,29.54,8,4,18,0.05
2013-6-4,63.0,59.0,53.0,58.0,47.4,42.0,100,67,48,29.84,29.59,10,4,22,0.01
2013-6-5,63.0,56.2,51.0,51.0,46.0,41.0,85,69,49,29.97,29.83,12,5,23,0.00
2013-6-6,65.0,57.4,50.0,53.0,49.0,45.0,96,75,51,30.04,29.97,7,2,12,0.00
2013-6-7,62.0,55.4,52.0,53.0,49.2,42.0,98,82,47,29.99,29.82,7,3,13,0.33
2013-6-8,63.0,55.8,52.0,58.0,54.6,51.0,100,95,83,29.82,29.47,15,6,25,1.48
2013-6-9,60.0,55.7,52.0,58.0,53.5,50.0,98,92,82,29.95,29.78,10,3,17,0.06
2013-6-10,65.0,57.6,53.0,56.0,53.6,51.0,100,87,64,30.05,29.89,12,4,19,0.01
2013-6-11,55.0,53.0,51.0,54.0,52.9,51.0,100,99,95,29.89,29.35,12,5,27,0.56
2013-6-12,57.0,54.1,51.0,57.0,53.6,51.0,100,98,91,29.54,29.31,13,6,27,0.48
2013-6-13,66.0,57.0,51.0,55.0,51.6,49.0,99,83,63,29.62,29.54,9,3,19,0.08
2013-6-14,61.0,55.8,52.0,56.0,52.2,48.0,96,88,71,29.57,29.49,9,3,13,0.06
2013-6-15,73.0,62.6,51.0,52.0,48.0,44.0,99,63,36,29.69,29.53,10,4,18,0.06
2013-6-16,73.0,62.4,54.0,55.0,51.7,49.0,92,70,48,29.71,29.54,9,3,19,0.01
2013-6-17,72.0,61.2,54.0,63.0,57.9,54.0,100,90,65,29.67,29.54,12,3,21,0.60
2013-6-18,66.0,60.5,56.0,60.0,54.2,50.0,100,81,60,29.78,29.66,6,2,13,0.07
2013-6-19,72.0,62.8,52.0,55.0,48.3,43.0,93,63,37,29.94,29.74,9,3,18,0.00
2013-6-20,69.0,60.7,53.0,55.0,50.2,46.0,86,70,45,30.06,29.93,13,3,17,0.00
2013-6-22,74.0,64.6,60.0,64.0,60.5,57.0,94,87,72,30.01,29.93,6,3,10,0.00
2013-6-23,70.0,61.3,58.0,65.0,59.9,57.0,100,95,84,29.96,29.78,10,3,15,0.18
2013-6-24,85.0,71.2,60.0,72.0,66.7,60.0,100,87,63,29.80,29.63,6,2,11,0.03
2013-6-25,82.0,72.9,65.0,69.0,65.5,63.0,99,79,55,29.67,29.54,16,4,23,0.11
2013-6-26,71.0,64.5,60.0,69.0,64.1,59.0,100,99,94,29.71,29.52,6,2,13,0.14
2013-6-27,60.0,56.3,54.0,60.0,55.9,54.0,100,98,92,29.73,29.69,8,3,14,0.01
2013-6-28,61.0,57.7,55.0,61.0,57.7,55.0,100,100,100,29.71,29.43,11,6,23,1.06
2013-6-29,64.0,59.8,56.0,64.0,59.8,56.0,100,100,100,29.54,29.42,15,6,24,0.21
2013-6-30,66.0,61.9,60.0,66.0,61.2,-99.9,100,99,99,29.77,29.54,11,6,19,0.01
2013-7-1,71.0,63.4,61.0,69.0,63.1,61.0,100,99,91,29.95,29.77,12,2,19,0.03
2013-7-2,66.0,60.4,57.0,66.0,60.3,56.0,100,99,97,30.07,29.94,7,3,15,0.28
2013-7-3,67.0,60.8,57.0,64.0,59.9,57.0,100,97,88,30.03,29.96,13,5,17,0.02
2013-7-4,82.0,69.6,61.0,72.0,66.8,61.0,100,92,67,29.99,29.89,15,2,24,0.00
2013-7-5,88.0,75.4,66.0,74.0,70.1,65.0,100,85,59,29.93,29.83,8,3,13,0.21
2013-7-6,86.0,77.1,71.0,73.0,70.5,69.0,99,82,58,29.85,29.74,6,3,14,0.21
2013-7-7,86.0,78.1,69.0,69.0,66.5,63.0,80,68,53,29.78,29.72,8,3,14,0.00
2013-7-8,77.0,68.0,60.0,69.0,61.9,-99.9,95,84,64,29.92,29.74,8,2,13,0.00
2013-7-9,69.0,63.9,61.0,66.0,61.4,59.0,99,91,82,29.97,29.91,7,2,11,0.01
2013-7-10,65.0,59.9,59.0,62.0,56.9,-99.9,100,95,91,29.94,29.76,7,4,12,0.01
2013-7-20,72.0,60.3,68.0,66.0,41.9,-99.9,90,73,79,29.62,29.49,6,4,13,0.01
2013-7-21,72.0,65.4,61.0,64.0,56.3,53.0,87,73,60,29.88,29.61,14,5,19,0.01
2013-7-22,69.0,62.9,58.0,64.0,58.3,55.0,96,85,61,29.89,29.80,11,2,15,0.00
2013-7-23,66.0,62.2,59.0,66.0,61.9,57.0,100,99,92,29.81,29.38,5,2,10,0.41
2013-7-24,75.0,66.5,59.0,71.0,64.2,52.0,100,93,73,29.81,29.40,13,4,17,0.06
2013-7-25,69.0,61.8,53.0,60.0,54.7,50.0,96,78,64,29.97,29.81,9,3,16,0.01
2013-7-26,67.0,62.4,60.0,67.0,61.0,-99.9,100,99,95,29.95,29.69,11,6,19,0.85
2013-7-27,75.0,65.4,59.0,66.0,62.0,58.0,100,89,72,29.90,29.70,12,5,17,0.02
2013-7-28,69.0,63.7,59.0,65.0,62.3,59.0,100,95,87,29.91,29.86,8,2,15,0.01
2013-7-29,69.0,63.1,59.0,66.0,62.3,59.0,100,97,90,29.92,29.83,9,3,13,0.01
2013-7-30,77.0,66.9,62.0,66.0,62.6,57.0,100,87,60,29.90,29.84,8,2,13,0.01
2013-7-31,75.0,66.3,60.0,62.0,55.9,-99.9,88,76,60,29.95,29.87,15,5,21,0.01
2013-8-1,72.0,64.3,59.0,66.0,61.4,58.0,98,91,70,29.90,29.75,12,4,20,0.00
2013-8-2,66.0,62.4,61.0,65.0,62.3,61.0,100,100,98,29.76,29.61,9,4,17,0.32
2013-8-3,71.0,62.9,58.0,65.0,61.1,58.0,100,94,77,29.67,29.56,15,3,24,0.28
2013-8-4,73.0,64.7,59.0,63.0,59.7,56.0,94,84,69,29.63,29.56,11,4,16,0.33
2013-8-5,69.0,62.3,55.0,56.0,53.9,49.0,92,75,60,29.84,29.62,9,4,17,0.08
2013-8-6,70.0,62.5,54.0,57.0,53.0,47.0,86,71,60,29.99,29.84,17,6,23,0.00
2013-8-7,67.0,61.6,55.0,60.0,56.9,51.0,96,85,76,30.04,29.98,15,6,20,0.00
2013-8-8,63.0,60.5,59.0,63.0,60.0,58.0,100,99,96,29.99,29.88,12,5,18,0.13
2013-8-9,66.0,63.4,62.0,66.0,63.4,62.0,100,100,100,29.88,29.54,16,8,28,1.81
2013-8-10,76.0,68.6,60.0,68.0,58.8,52.0,100,74,46,29.81,29.54,11,4,20,0.64
2013-8-11,74.0,64.4,56.0,60.0,55.5,52.0,89,74,53,29.87,29.79,8,4,14,0.00
2013-8-12,74.0,65.2,58.0,62.0,58.2,55.0,94,79,59,29.84,29.74,13,4,21,0.00
2013-8-13,68.0,61.9,58.0,65.0,58.9,-99.9,100,94,89,29.75,29.56,10,3,14,0.00
2013-8-21,77.0,68.5,61.0,67.0,62.6,60.0,95,82,67,29.96,29.83,15,4,20,0.00
2013-8-22,78.0,69.1,63.0,67.0,64.8,62.0,97,87,66,29.82,29.59,15,6,20,0.00
2013-8-23,74.0,66.6,59.0,65.0,57.4,52.0,98,75,46,29.96,29.59,9,4,18,0.04
2013-8-24,76.0,63.1,52.0,56.0,50.9,46.0,89,67,39,30.13,29.97,9,3,14,0.00
2013-8-25,73.0,62.0,54.0,58.0,51.8,-99.9,95,74,50,30.18,29.99,10,3,15,0.00
2013-8-26,68.0,63.4,59.0,64.0,60.8,56.0,97,91,83,29.98,29.70,12,4,18,0.03
2013-8-27,78.0,66.9,60.0,69.0,63.4,59.0,100,90,70,29.72,29.67,7,2,11,0.03
2013-9-11,74.0,64.2,58.0,70.0,63.2,58.0,100,97,85,29.90,29.73,11,4,20,0.02
2013-9-12,72.0,64.9,60.0,69.0,64.4,60.0,100,98,87,29.84,29.52,15,6,24,0.22
2013-9-13,66.0,61.8,58.0,66.0,61.8,58.0,100,100,99,29.52,29.43,14,3,22,0.96
2013-9-14,67.0,59.9,55.0,60.0,57.2,53.0,100,91,73,29.84,29.52,8,3,13,0.01
2013-9-15,61.0,54.0,51.0,55.0,48.5,-99.9,97,87,76,29.95,29.84,16,4,24,0.00
2013-9-16,61.0,54.5,46.0,56.0,50.9,35.0,100,88,66,30.06,29.80,11,3,20,0.04
2013-9-17,63.0,51.0,41.0,50.0,41.7,35.0,86,72,50,30.20,30.06,9,4,21,0.02
2013-10-2,75.0,63.2,53.0,61.0,55.7,50.0,99,79,54,29.69,29.54,7,3,17,0.00
2013-10-3,71.0,63.3,55.0,52.0,49.1,44.0,77,61,48,29.88,29.70,7,3,16,0.00
2013-10-4,66.0,58.9,51.0,53.0,48.5,46.0,89,69,52,29.92,29.85,6,2,12,0.00
2013-10-5,58.0,53.7,49.0,51.0,45.6,41.0,90,74,58,29.98,29.91,7,3,10,0.00
2013-10-6,55.0,49.6,42.0,48.0,41.1,36.0,96,73,52,30.12,29.98,9,5,13,0.08
2013-10-7,62.0,55.3,47.0,62.0,54.6,46.0,100,98,96,30.06,29.63,28,13,42,0.44
2013-10-8,65.0,55.1,47.0,65.0,46.7,39.0,100,75,54,30.22,29.63,22,5,35,0.02
2013-10-9,57.0,49.5,42.0,47.0,42.4,38.0,90,77,61,30.31,30.20,13,4,18,0.00
2013-10-10,58.0,50.3,43.0,51.0,46.5,42.0,99,88,68,30.19,30.03,11,3,16,0.01
2013-10-18,63.0,55.3,49.0,58.0,51.1,47.0,100,87,62,29.63,29.41,11,4,23,0.19
2013-10-19,60.0,53.5,49.0,50.0,45.9,41.0,91,76,56,29.75,29.62,16,6,25,0.02
2013-10-20,60.0,53.8,50.0,54.0,42.2,-99.9,97,70,40,29.75,29.50,13,7,22,0.01
2013-10-21,59.0,51.1,46.0,49.0,40.8,36.0,91,69,49,29.89,29.75,11,5,18,0.01
2013-10-22,58.0,53.8,46.0,55.0,51.0,43.0,98,91,82,29.83,29.52,18,9,26,0.09
2013-10-23,51.0,46.5,39.0,43.0,39.0,35.0,97,76,54,29.59,29.39,6,2,14,0.06
2013-10-24,48.0,44.1,40.0,40.0,32.9,28.0,86,65,49,29.59,29.40,11,6,22,0.01
2013-10-25,49.0,44.1,40.0,34.0,32.2,30.0,74,63,54,29.88,29.59,9,5,20,0.00
2013-10-26,48.0,41.2,37.0,40.0,30.2,-99.9,88,70,55,29.91,29.70,24,8,40,0.00
2013-10-27,53.0,45.4,41.0,43.0,34.1,-99.9,94,72,56,29.78,29.58,18,6,26,0.05
2013-10-28,52.0,42.6,37.0,40.0,31.3,-99.9,74,67,56,30.14,29.78,14,7,26,0.01
2013-10-29,45.0,37.1,31.0,31.0,26.4,20.0,79,66,37,30.26,30.14,6,3,16,0.00
2013-10-30,45.0,38.2,32.0,32.0,29.2,23.0,94,72,46,30.16,29.97,7,3,13,0.00
2013-12-17,14.0,8.9,2.0,12.0,1.7,-5.0,93,73,62,30.11,29.87,9,5,16,0.00
2013-12-18,22.0,16.9,14.0,20.0,15.7,13.0,95,94,91,29.84,29.63,12,8,21,0.00
2013-12-19,33.0,30.0,26.0,28.0,25.5,21.0,86,83,79,29.87,29.72,8,4,13,0.00
2013-12-20,37.0,32.4,27.0,35.0,30.5,27.0,99,93,82,29.95,29.72,8,3,13,0.04
2013-12-21,32.0,26.8,24.0,32.0,25.0,-99.9,99,97,98,29.79,29.64,9,4,16,0.01
2013-12-22,31.0,28.3,25.0,31.0,22.4,-99.9,99,94,98,29.89,29.73,8,1,13,0.00
2013-12-23,28.0,27.1,26.0,28.0,27.1,26.0,100,99,99,29.92,29.85,0,0,0,0.00
2013-12-24,19.0,16.1,12.0,17.0,13.6,9.0,95,89,85,29.94,29.88,0,0,0,0.00
2013-12-25,17.0,12.0,9.0,13.0,8.6,5.0,94,86,84,30.35,29.93,0,0,0,0.00
2013-12-26,31.0,20.2,13.0,31.0,19.3,10.0,99,95,89,30.33,29.86,0,0,0,0.00